Location: Gad�tanya
(48.0500°N, 20.8500°E)
Time: 11:10:05
(UTC+00:00)

Landsat 4 - Pass Details

Date: 05 July 2020
Orbit: 506 x 522 km, 98.2° (Epoch: 14 August)

Event Time Altitude Azimuth Distance (km) Brightness Sun altitude
Rises 22:57:18 0° 12° (NNE) 2,651 8.9 -19.2°
Reaches altitude 10° 22:59:24 10° 11° (N) 1,761 7.6 -19.2°
Maximum altitude 23:03:11 76° 287° (WNW) 543 3.7 -19.1°
Enters shadow 23:04:03 51° 215° (SW) 664 3.8 -19.1°
